Location: Newark
(3.0500°N, 36.0167°E)
Time: 04:52:48
(UTC+00:00)

A-11 Canister half - Pass Details

Date: 02 September 2019
Orbit: 1527 x 1682 km, 47.3° (Epoch: 22 September)

Event Time Altitude Azimuth Distance (km) Brightness Sun altitude
Rises 17:23:19 0° 281° (W) 4,897 13.0 -26.1°
Reaches altitude 10° 17:28:32 10° 259° (WSW) 3,885 11.9 -27.4°
Maximum altitude 17:33:27 15° 228° (SW) 3,490 11.2 -28.6°
Drops below altitude 10° 17:38:20 10° 197° (SSW) 3,827 11.1 -29.8°
Sets 17:43:29 0° 175° (S) 4,779 11.4 -31.1°
